HUERBEL Weather Reports


time (UTC)temp
C
wind
direction
speed
KPH
gust
KPH
rain 1hr
cm
rain 24hr
cm
rain mn
cm
humidity
%
barometer
mb
20260506160210 10 259 33.8 0.0 0.00 0.00 0.15 81 1008.6
20260506153210 11 231 41.8 0.0 0.00 0.00 0.15 82 1008.2
20260506150210 16 221 41.8 0.0 0.00 0.00 0.08 66 1007.2
20260506143210 17 209 6.4 0.0 0.00 0.00 0.08 64 1006.2
20260506140210 14 292 6.4 0.0 0.00 0.00 0.08 76 1006.1
20260506133211 16 215 11.3 0.0 0.00 0.00 0.00 60 1006.5
20260506130211 17 194 12.9 0.0 0.00 0.00 0.00 54 1006.4
20260506123210 17 220 14.5 0.0 0.00 0.00 0.00 57 1006.1
20260506120210 16 150 6.4 0.0 0.00 0.00 0.00 59 1006.1
20260506113217 17 124 8.0 0.0 0.00 0.00 0.00 60 1006.2
20260506110210 17 171 8.0 0.0 0.00 0.00 0.00 60 1006.4
20260506100213 15 263 6.4 0.0 0.00 0.00 0.00 66 1007.0
20260506093211 16 177 11.3 0.0 0.00 0.00 0.00 65 1007.2
20260506090211 15 348 11.3 0.0 0.00 0.00 0.00 65 1007.2
20260506083211 15 355 11.3 0.0 0.00 0.00 0.00 71 1007.1
20260506080212 12 5 4.8 0.0 0.00 0.00 0.00 82 1007.4
20260506073211 12 345 4.8 0.0 0.00 0.00 0.00 82 1007.5
20260506070212 12 148 6.4 0.0 0.00 0.00 0.00 82 1007.9
20260506060210 9 109 4.8 0.0 0.00 0.00 0.00 90 1007.9
20260506050211 7 159 1.6 0.0 0.00 0.00 0.00 88 1008.0
20260506043211 7 159 1.6 0.0 0.00 0.00 0.00 88 1008.2
20260506040211 7 158 3.2 0.0 0.00 0.00 0.00 88 1008.4
20260506033211 7 184 4.8 0.0 0.00 0.00 0.00 87 1008.7
20260506030212 8 188 3.2 0.0 0.00 0.00 0.00 87 1008.8
20260506023211 8 182 3.2 0.0 0.00 0.00 0.00 87 1009.1
20260506020212 10 137 8.0 0.0 0.00 0.00 0.00 82 1009.1
20260506013211 10 242 1.6 0.0 0.00 0.00 0.00 82 1009.2
20260506010212 10 242 4.8 0.0 0.00 0.00 0.00 82 1009.6
20260506003209 10 153 3.2 0.0 0.00 0.00 0.00 82 1009.5
20260506000211 10 100 4.8 0.0 0.00 0.00 0.00 82 1009.8
20260505233209 10 188 3.2 0.0 0.00 0.00 0.00 82 1010.0
20260505230209 10 173 12.9 0.0 0.00 0.00 0.00 82 1010.1
20260505223210 11 211 11.3 0.0 0.00 0.00 0.00 81 1010.3
20260505220209 11 202 11.3 0.0 0.00 0.00 0.00 81 1010.4
20260505213211 11 234 14.5 0.0 0.00 0.00 0.10 80 1010.2
20260505210215 12 240 8.0 0.0 0.00 0.00 0.10 79 1010.1
20260505203209 12 221 16.1 0.0 0.00 0.00 0.10 79 1010.3
20260505200210 13 232 17.7 0.0 0.00 0.00 0.10 77 1010.4
20260505193209 15 331 27.4 0.0 0.00 0.00 0.03 71 1010.2
20260505190215 15 224 22.5 0.0 0.00 0.00 0.00 67 1009.2
20260505183212 15 219 12.9 0.0 0.00 0.00 0.00 65 1008.8
20260505180211 15 258 6.4 0.0 0.00 0.00 0.00 67 1008.4
20260505173210 16 315 11.3 0.0 0.00 0.00 0.00 66 1008.4
20260505170210 16 316 3.2 0.0 0.00 0.00 0.00 66 1007.9
20260505163211 16 254 3.2 0.0 0.00 0.00 0.00 59 1007.8